Social login voor leden:
METAR EBOS 291820Z 23010KT 9999 FEW032 SCT045 13/08 Q1024 NOSIG
TAF EBOS 291710Z 2918/3024 19009KT 9999 SCT040

Klik hier voor meer info over de Luchtvaartdag op 22 april 2017

 

NZVC is de eerste Belgische vliegclub met een erkenning als 'Approved Training Organisation (ATO)'

Sinds 3 maart 2015 is de Noordzee Vliegclub Oostende erkend door de Europese Unie en de Belgian Civil Aviation Authority als Approved Training Organisation (ATO). Hierbij zijn we de eerste vliegclub in België die voldoet aan de nieuwste en strengste Europese normen inzake organisatie, kwaliteit en veiligheid bij de opleiding tot Privaat Piloot (PPL).

 

Opleiding Piloot
Luchtdopen
Visit Us
Agenda
Opleiding Piloot
Doopvluchten
Visit Us
Volgende activiteit
Noordzee Vliegclub - Nieuwpoortsesteenweg 947 8400 Oostende - Tel 059 30 04 79 - Dit e-mailadres wordt beveiligd tegen spambots. JavaScript dient ingeschakeld te zijn om het te bekijken.

 - Copyright 2017 ©